#timestamp,LO_Frequency,Hit 
1598180415.1,286047000.3,N
1598180416.0,286047000.3,N
1598180435.8,286046998.8,N
1598180455.7,286047001.1,N
1598180475.5,286046998.2,N
1598180495.3,286046998.5,N
1598180515.2,286046998.1,N
1598180535.9,286047000.8,N
1598180555.7,286046998.2,N
1598180575.6,286046998.4,N
1598180595.4,286046999.4,N
1598180615.2,286047000.9,N
1598180635.1,286047001.0,N
1598180636.0,286047001.0,N
1598180655.8,286046998.4,N
1598180675.6,286046999.0,N
1598180695.5,286046998.1,N
1598180715.3,286046999.2,N
1598180735.1,286046998.1,N
1598180755.9,286046996.5,P
1598180775.7,286046998.4,N
1598180795.5,286046998.9,N
1598180815.4,286046998.2,N
1598180835.2,286046998.8,N
1598180855.0,286046998.3,N
1598180856.0,286046998.3,N
1598180875.8,286046999.6,N
1598180895.6,286046999.3,N
1598180915.5,286046999.0,N
1598180935.3,286046998.9,N
1598180955.1,286046998.9,N
1598180975.9,286046999.3,N
1598180995.7,286046998.9,N
1598181015.5,286046998.9,N
1598181035.4,286046999.0,N
1598181055.2,286046998.1,N
1598181075.0,286047000.7,N
1598181075.9,286047000.7,N
1598181095.8,286047000.8,N
1598181115.6,286047000.2,N
1598181135.4,286047000.2,N
1598181155.3,286046999.9,N
1598181175.1,286046999.8,N
1598181176.0,286046999.8,N
1598181195.8,286047002.6,N
1598181215.7,286047002.1,N
1598181235.5,286047001.8,N
1598181255.3,286047002.3,N
1598181275.2,286047002.2,N
1598181295.9,286047002.4,N
1598181315.7,286047002.5,N
1598181335.6,286046999.7,N
1598181355.4,286047002.4,N
1598181375.2,286047002.5,N
1598181395.1,286047002.0,N
1598181396.0,286047002.0,N
1598181415.8,286046999.9,N
1598181435.6,286047001.9,N
1598181455.5,286047001.9,N
1598181475.3,286046999.8,N
1598181495.1,286046999.7,N
1598181515.9,286047002.0,N
1598181535.7,286046999.9,N
1598181555.5,286047002.3,N
1598181575.4,286047002.2,N
1598181595.2,286046999.8,N
1598181615.0,286047002.6,N
1598181615.9,286047002.6,N
1598181635.8,286046999.8,N
1598181655.6,286047002.7,N
1598181675.4,286047001.6,N
1598181695.3,286047000.1,N
1598181715.1,286047002.2,N
1598181716.0,286047002.2,N
1598181735.8,286047001.5,N
1598181755.7,286047002.8,N
1598181775.5,286047002.3,N
1598181795.3,286047002.6,N
1598181815.2,286047001.6,N
1598181835.9,286047001.6,N
1598181855.7,286047000.3,N
1598181875.6,286047000.2,N
1598181895.4,286047000.1,N
1598181915.2,286047000.4,N
1598181935.1,286047000.3,N
1598181936.0,286047000.3,N
1598181955.8,286047000.7,N
1598181975.6,286046999.8,N
1598181995.5,286047000.1,N
1598182015.3,286047000.2,N
1598182035.1,286047000.1,N
1598182055.9,286047000.5,N
1598182075.7,286047002.2,N
1598182095.5,286047002.5,N
1598182115.4,286046999.7,N
1598182135.2,286047002.4,N
1598182155.0,286047000.1,N
1598182155.9,286047000.1,N
1598182175.8,286047000.2,N
1598182195.6,286047000.9,N
1598182215.4,286047000.1,N
1598182235.3,286047000.7,N
1598182255.1,286047001.0,N
1598182275.8,286047000.7,N
1598182295.7,286047001.2,N
1598182315.5,286047000.4,N
1598182335.3,286047001.1,N
1598182355.2,286047000.9,N
1598182375.9,286046998.8,N
1598182395.7,286047000.8,N
1598182415.6,286047000.3,N
1598182435.4,286046998.1,N
1598182455.2,286047000.8,N
1598182475.1,286047000.6,N
1598182476.0,286047000.6,N
1598182495.8,286047001.0,N
1598182515.6,286047000.3,N
1598182535.5,286046999.8,N
1598182555.3,286047000.3,N
1598182575.1,286047000.4,N
1598182595.9,286047000.6,N
1598182615.7,286046998.5,N
1598182635.5,286047000.1,N
1598182655.4,286047000.9,N
1598182675.2,286047000.1,N
1598182695.0,286046998.2,N
1598182695.9,286046998.2,N
1598182715.8,286047000.8,N
1598182735.6,286047000.7,N
1598182755.4,286047000.7,N
1598182775.3,286047000.7,N
1598182795.1,286046998.2,N
1598182815.8,286046998.1,N
1598182835.7,286046998.4,N
1598182855.5,286046999.0,N
1598182875.3,286046998.1,N
1598182895.2,286046998.8,N
1598182915.0,286047001.2,N
1598182915.9,286047001.2,N
1598182935.7,286046999.5,N
1598182955.6,286046999.4,N
1598182975.4,286046998.7,N
1598182995.2,286046998.3,N
1598183015.1,286046998.5,N
1598183016.0,286046998.5,N
1598183035.8,286046998.9,N
1598183055.7,286046999.2,N
1598183075.5,286046998.5,N
1598183095.3,286046999.3,N
1598183115.2,286046996.7,P
1598183135.9,286047001.0,N
1598183155.7,286046998.9,N
1598183175.6,286046998.8,N
1598183195.4,286046996.5,N
1598183215.2,286046999.3,N
1598183235.1,286046998.9,N
1598183236.0,286046998.9,N
1598183255.8,286046997.2,N
1598183275.6,286046997.4,N
1598183295.5,286046999.1,N
1598183315.3,286046997.3,N
1598183335.1,286046996.5,N
1598183355.9,286046999.1,N
1598183375.7,286046998.6,N
1598183395.5,286046996.5,N
1598183415.4,286046996.5,N
1598183435.2,286046996.7,N
1598183455.0,286046996.7,N
1598183455.9,286046996.7,N
1598183475.8,286046997.0,N
1598183495.6,286046997.0,N
1598183515.4,286046997.7,N
1598183535.3,286046997.3,N
1598183555.1,286046997.1,N
1598183575.8,286046996.8,N
1598183595.7,286046997.1,N
1598183615.5,286046999.2,N
1598183635.3,286046997.2,N
1598183655.2,286046999.2,N
1598183675.9,286046999.2,N
1598183695.7,286046997.2,N
1598183715.6,286046996.8,P
1598183735.4,286046998.3,P
1598183755.2,286046998.3,N
1598183775.1,286046998.8,N
1598183776.0,286046998.8,N
1598183795.8,286047000.5,N
1598183815.7,286046998.1,N
1598183835.5,286046998.6,N
1598183855.3,286047001.1,N
1598183875.2,286046998.6,N
1598183895.9,286046998.9,N
1598183915.7,286047000.8,N
1598183935.6,286046998.3,N
1598183955.4,286047001.0,N
1598183975.2,286046998.9,N
1598183995.1,286046998.2,N
1598183996.0,286046998.2,N
